Weather History for Caldwell, NJ

Change the Weather History Date:

Sunday, January 13, 2013

  Actual Average Record
Temperature  
Mean Temperature 46 °F -  
Max Temperature 48 °F 33 °F 55 °F (2005)
Min Temperature 44 °F 15 °F -6 °F (1981)
Degree Days  
Heating Degree Days 19    
Moisture  
Dew Point 45 °F    
Average Humidity 98    
Maximum Humidity 100    
Minimum Humidity 93    
Precipitation  
Precipitation 0.01 in - - ()
Sea Level Pressure  
Sea Level Pressure 30.10 in    
Wind  
Wind Speed 1 mph (South)    
Max Wind Speed 7 mph    
Max Gust Speed -    
Visibility 1 miles    
Events Fog    
Averages and records for this station are not official NWS values.
T = Trace of Precipitation, MM = Missing Value Source: NWS Daily Summary

Daily Weather History Graph

Daily Weather History Graph

Search for Another Location

Airport:

Trip Planner

Search our weather history database for the weather conditions in past years. The results will help you decide how hot, cold, wet, or windy it might be!

Date:

Astronomy

Jan. 13, 2013 Rise Set
Actual Time 7:20 AM EST 4:52 PM EST
Civil Twilight 6:49 AM EST 5:22 PM EST
Nautical Twilight 6:15 AM EST 5:56 PM EST
Astronomical Twilight 5:42 AM EST 6:29 PM EST
Moon 8:15 AM EST (1/13) 7:28 PM EST (1/13)
Length of Visible Light 10h 32m
Length of Day
9h 31m
Waxing Crescent, 5% of the Moon is Illuminated
Jan 13
Waxing Crescent
Jan 18
First Quarter
Jan 26
Full
Feb 3
Last Quarter
Feb 10
New

Hourly Weather History & Observations

Time (EST) Temp. Windchill Dew Point Humidity Pressure Visibility Wind Dir Wind Speed Gust Speed Precip Events Conditions
12:20 AM 44.6 °F - 44.6 °F 100% 30.14 in 1.5 mi Calm Calm - N/A   Overcast
12:44 AM 44.6 °F - 44.6 °F 100% 30.15 in 0.8 mi Calm Calm - N/A   Overcast
1:00 AM 44.6 °F - 44.6 °F 100% 30.15 in 1.2 mi Calm Calm - N/A   Overcast
1:53 AM 44.1 °F - 44.1 °F 100% 30.17 in 1.0 mi Calm Calm - N/A   Overcast
2:22 AM 44.6 °F 42.2 °F 42.8 °F 93% 30.13 in 0.5 mi ESE 4.6 mph - N/A Fog Fog
2:37 AM 44.6 °F - 44.6 °F 100% 30.14 in 1.5 mi Calm Calm - N/A   Overcast
2:53 AM 44.1 °F 42.5 °F 44.1 °F 100% 30.15 in 2.0 mi SSE 3.5 mph - N/A   Overcast
3:09 AM 44.6 °F - 44.6 °F 100% 30.13 in 1.2 mi Calm Calm - N/A   Overcast
3:23 AM 44.6 °F - 44.6 °F 100% 30.13 in 0.8 mi Calm Calm - N/A   Overcast
4:09 AM 44.6 °F - 44.6 °F 100% 30.13 in 0.2 mi Calm Calm - N/A Fog Fog
4:53 AM 44.1 °F - 44.1 °F 100% 30.14 in 0.2 mi Calm Calm - N/A Fog Fog
5:53 AM 44.1 °F - 44.1 °F 100% 30.13 in 0.2 mi Calm Calm - N/A Fog Fog
6:40 AM 44.6 °F - 44.6 °F 100% 30.11 in 1.0 mi Calm Calm - N/A   Mist
6:50 AM 44.6 °F 41.4 °F 44.6 °F 100% 30.11 in 3.0 mi South 5.8 mph - N/A   Overcast
6:53 AM 44.1 °F 40.1 °F 44.1 °F 100% 30.13 in 3.0 mi South 6.9 mph - N/A   Overcast
7:03 AM 44.6 °F 43.1 °F 44.6 °F 100% 30.12 in 4.0 mi South 3.5 mph - N/A   Overcast
7:35 AM 44.6 °F - 42.8 °F 93% 30.13 in 1.8 mi Calm Calm - N/A   Overcast
7:53 AM 44.1 °F - 44.1 °F 100% 30.15 in 0.8 mi Calm Calm - N/A   Overcast
8:22 AM 44.6 °F - 44.6 °F 100% 30.14 in 0.2 mi Calm Calm - N/A Fog Fog
8:37 AM 44.6 °F - 44.6 °F 100% 30.14 in 0.5 mi Calm Calm - N/A Fog Fog
8:49 AM 44.6 °F - 44.6 °F 100% 30.14 in 1.2 mi Calm Calm - N/A   Overcast
8:53 AM 44.1 °F 42.5 °F 44.1 °F 100% 30.16 in 1.2 mi SSW 3.5 mph - N/A   Overcast
9:20 AM 44.6 °F - 44.6 °F 100% 30.14 in 0.5 mi Calm Calm - N/A Fog Fog
9:49 AM 44.6 °F 42.2 °F 44.6 °F 100% 30.15 in 1.2 mi SSE 4.6 mph - N/A   Overcast
9:53 AM 45.0 °F 42.6 °F 44.1 °F 97% 30.17 in 1.5 mi SSE 4.6 mph - N/A   Overcast
10:05 AM 44.6 °F 43.1 °F 44.6 °F 100% 30.15 in 2.0 mi SSE 3.5 mph - N/A   Overcast
10:19 AM 44.6 °F 42.2 °F 44.6 °F 100% 30.15 in 1.2 mi SE 4.6 mph - N/A   Overcast
10:53 AM 45.0 °F 42.6 °F 44.1 °F 97% 30.16 in 1.8 mi Variable 4.6 mph - N/A   Overcast
11:34 AM 44.6 °F 42.2 °F 44.6 °F 100% 30.12 in 2.0 mi SSE 4.6 mph - N/A   Overcast
11:53 AM 45.0 °F 42.6 °F 44.1 °F 97% 30.14 in 2.5 mi SSE 4.6 mph - N/A   Overcast
12:53 PM 46.0 °F - 44.1 °F 93% 30.11 in 3.0 mi Calm Calm - N/A   Overcast
1:26 PM 46.4 °F 45.2 °F 44.6 °F 93% 30.07 in 2.5 mi South 3.5 mph - N/A   Overcast
1:40 PM 46.4 °F - 44.6 °F 93% 30.07 in 3.0 mi Calm Calm - N/A   Overcast
1:53 PM 46.9 °F - 45.0 °F 93% 30.09 in 3.0 mi South 3.5 mph - N/A   Overcast
2:15 PM 46.4 °F - 44.6 °F 93% 30.07 in 3.0 mi Calm Calm - N/A   Overcast
2:45 PM 46.4 °F 44.3 °F 44.6 °F 93% 30.08 in 2.0 mi SSW 4.6 mph - N/A   Overcast
2:53 PM 46.9 °F - 45.0 °F 93% 30.09 in 1.2 mi South 3.5 mph - N/A   Overcast
3:53 PM 48.0 °F - 46.0 °F 93% 30.07 in 2.5 mi Calm Calm - N/A   Overcast
4:13 PM 48.2 °F - 46.4 °F 93% 30.06 in 3.0 mi Calm Calm - N/A   Overcast
4:36 PM 46.4 °F - 46.4 °F 100% 30.05 in 2.0 mi Calm Calm - N/A   Overcast
4:43 PM 46.4 °F - 46.4 °F 100% 30.05 in 1.5 mi Calm Calm - N/A   Overcast
4:53 PM 46.9 °F - 46.0 °F 97% 30.07 in 1.5 mi Calm Calm - N/A   Overcast
5:53 PM 46.9 °F - 46.0 °F 97% 30.05 in 1.0 mi Calm Calm - N/A   Overcast
6:22 PM 46.4 °F - 46.4 °F 100% 30.04 in 0.8 mi Calm Calm - N/A   Overcast
6:53 PM 46.9 °F - 46.0 °F 97% 30.06 in 0.5 mi Calm Calm - N/A Fog Fog
7:14 PM 46.4 °F - 46.4 °F 100% 30.03 in 0.2 mi Calm Calm - N/A Fog Fog
7:33 PM 46.4 °F - 46.4 °F 100% 30.03 in 0.2 mi Calm Calm - N/A Fog Fog
7:53 PM 46.0 °F - 46.0 °F 100% 30.05 in 0.2 mi Calm Calm - N/A Fog Fog
8:53 PM 46.0 °F - 46.0 °F 100% 30.05 in 0.2 mi Calm Calm - N/A Fog Fog
9:53 PM 46.0 °F - 46.0 °F 100% 30.04 in 0.2 mi Calm Calm - 0.01 in Fog Fog
9:59 PM 46.4 °F - 46.4 °F 100% 30.02 in 0.5 mi Calm Calm - N/A Fog Fog
10:53 PM 46.0 °F - 46.0 °F 100% 30.04 in 0.5 mi Calm Calm - N/A Fog Fog
11:53 PM 46.0 °F - 46.0 °F 100% 30.03 in 0.8 mi Calm Calm - N/A   Overcast